START_TIME,STEP,MOV.,H8,t_acc.,H43,t_acc.,M25,t_acc.,H9,t_acc.
1986-01-26 12:00:30.800 ,0,0,0.,12.0,0.,12.0,0.,12.0,0.,12.0
1986-01-26 12:00:42.800 ,0,0,0.,12.0,0.,12.0,0.,12.0,0.,12.0
1986-01-26 12:00:54.800 ,0,0,0.,12.0,0.,12.0,0.,12.0,0.,12.0
1986-01-26 12:01:06.800 ,0,0,0.,12.0,0.,12.0,0.,12.0,0.,12.0
1986-01-26 12:01:18.800 ,0,0,0.,12.0,0.,12.0,0.,12.0,0.,12.0
1986-01-26 12:01:30.800 ,0,0,0.,12.0,0.,12.0,0.,12.0,0.,12.0
1986-01-26 12:01:42.800 ,1,0,0.,12.0,0.,12.0,0.,12.0,0.,12.0
1986-01-26 12:01:54.800 ,1,0,0.,12.0,0.,12.0,0.,12.0,0.,12.0
1986-01-26 12:02:06.790 ,1,0,0.,12.0,0.,12.0,0.,12.0,0.,12.0
1986-01-26 12:02:18.790 ,1,0,0.,12.0,0.,12.0,0.,12.0,0.,12.0
1986-01-26 12:02:30.790 ,2,0,0.,12.0,0.,12.0,0.,12.0,0.,12.0
1986-01-26 12:02:42.800 ,2,0,0.,12.0,0.,12.0,0.,12.0,0.,12.0
1986-01-26 12:02:54.790 ,2,0,0.,12.0,0.,12.0,0.,12.0,0.,12.0
1986-01-26 12:03:06.800 ,2,0,0.,12.0,0.,12.0,0.,12.0,0.,12.0
1986-01-26 12:03:18.790 ,3,0,0.,12.0,0.,12.0,0.,12.0,0.,12.0
1986-01-26 12:03:30.800 ,3,0,0.,12.0,0.,12.0,0.,12.0,0.,12.0
1986-01-26 12:03:42.790 ,3,0,0.,12.0,0.,12.0,0.,12.0,0.,12.0
1986-01-26 12:03:54.800 ,3,0,0.,12.0,0.,12.0,0.,12.0,0.,12.0
1986-01-26 12:04:06.790 ,4,0,0.,12.0,0.,12.0,0.,12.0,0.,12.0
1986-01-26 12:04:18.800 ,4,0,0.,12.0,0.,12.0,0.,12.0,0.,12.0
1986-01-26 12:04:30.800 ,4,0,0.,12.0,0.,12.0,0.,12.0,0.,12.0
1986-01-26 12:04:42.800 ,4,0,0.,12.0,0.,12.0,0.,12.0,0.,12.0
1986-01-26 12:04:54.800 ,5,0,0.,12.0,0.,12.0,0.,12.0,0.,12.0
1986-01-26 12:05:06.800 ,5,0,0.,12.0,0.,12.0,0.,12.0,0.,12.0
1986-01-26 12:05:18.800 ,5,0,0.,12.0,0.,12.0,0.,12.0,0.,12.0
1986-01-26 12:05:30.800 ,5,0,0.,12.0,0.,12.0,0.,12.0,0.,12.0
1986-01-26 12:05:42.800 ,6,0,0.,12.0,0.,12.0,0.,12.0,0.,12.0
1986-01-26 12:05:54.800 ,6,0,0.,12.0,0.,12.0,0.,12.0,0.,12.0
1986-01-26 12:06:06.800 ,6,0,0.,12.0,0.,12.0,0.,12.0,0.,12.0
1986-01-26 12:06:18.800 ,6,0,0.,12.0,0.,12.0,0.,12.0,0.,12.0
1986-01-26 12:06:30.800 ,7,0,0.,12.0,0.,12.0,0.,12.0,0.,12.0
1986-01-26 12:06:42.800 ,7,0,0.,12.0,0.,12.0,0.,12.0,0.,12.0
1986-01-26 12:06:54.800 ,7,0,0.,12.0,0.,12.0,0.,12.0,0.,12.0
1986-01-26 12:07:06.800 ,7,0,0.,12.0,0.,12.0,0.,12.0,0.,12.0
1986-01-26 12:07:18.800 ,7,0,0.,12.0,0.,12.0,0.,12.0,0.,12.0
1986-01-26 12:07:30.800 ,7,0,0.,12.0,0.,12.0,0.,12.0,0.,12.0
1986-01-26 12:07:42.800 ,7,0,0.,12.0,0.,12.0,0.,12.0,0.,12.0
1986-01-26 12:07:54.800 ,7,0,0.,12.0,0.,12.0,0.,12.0,0.,12.0
1986-01-26 12:08:06.800 ,6,0,0.,12.0,0.,12.0,0.,12.0,0.,12.0
1986-01-26 12:08:18.800 ,6,0,0.,12.0,0.,12.0,0.,12.0,0.,12.0
1986-01-26 12:08:30.800 ,6,0,0.,12.0,0.,12.0,0.,12.0,0.,12.0
1986-01-26 12:08:42.800 ,6,0,0.,12.0,0.,12.0,0.,12.0,0.,12.0
1986-01-26 12:08:54.790 ,5,0,0.,12.0,0.,12.0,0.,12.0,0.,12.0
1986-01-26 12:09:06.790 ,5,0,0.,12.0,0.,12.0,0.,12.0,0.,12.0
1986-01-26 12:09:18.790 ,5,0,0.,12.0,0.,12.0,0.,12.0,0.,12.0
1986-01-26 12:09:30.790 ,5,0,0.,12.0,0.,12.0,0.,12.0,0.,12.0
1986-01-26 12:09:42.790 ,4,0,0.,12.0,0.,12.0,0.,12.0,0.,12.0
1986-01-26 12:09:54.790 ,4,0,0.,12.0,0.,12.0,0.,12.0,0.,12.0
1986-01-26 12:10:06.790 ,4,0,0.,12.0,0.,12.0,0.,12.0,0.,12.0
1986-01-26 12:10:18.790 ,4,0,0.,12.0,0.,12.0,0.,12.0,0.,12.0
1986-01-26 12:10:30.790 ,3,0,0.,12.0,0.,12.0,0.,12.0,0.,12.0
1986-01-26 12:10:42.790 ,3,0,0.,12.0,0.,12.0,0.,12.0,0.,12.0
1986-01-26 12:10:54.790 ,3,0,0.,12.0,0.,12.0,0.,12.0,0.,12.0
1986-01-26 12:11:06.790 ,3,0,0.,12.0,0.,12.0,0.,12.0,0.,12.0
1986-01-26 12:11:18.790 ,2,0,0.,12.0,0.,12.0,0.,12.0,0.,12.0
1986-01-26 12:11:30.790 ,2,0,0.,12.0,0.,12.0,0.,12.0,0.,12.0
1986-01-26 12:11:42.790 ,2,0,0.,12.0,0.,12.0,0.,12.0,0.,12.0
1986-01-26 12:11:54.790 ,2,0,0.,12.0,0.,12.0,0.,12.0,0.,12.0
1986-01-26 12:12:06.790 ,1,0,0.,12.0,0.,12.0,0.,12.0,0.,12.0
1986-01-26 12:12:18.790 ,1,0,0.,12.0,0.,12.0,0.,12.0,0.,12.0
1986-01-26 12:12:30.790 ,1,0,0.,12.0,0.,12.0,0.,12.0,0.,12.0
1986-01-26 12:12:42.790 ,1,0,0.,12.0,0.,12.0,0.,12.0,0.,12.0
1986-01-26 12:12:54.790 ,0,0,0.,12.0,0.,12.0,0.,12.0,0.,12.0
1986-01-26 12:13:06.790 ,0,0,0.,12.0,0.,12.0,0.,12.0,0.,12.0
1986-01-26 12:13:18.790 ,0,0,0.,12.0,0.,12.0,0.,12.0,0.,12.0
1986-01-26 12:13:30.790 ,0,0,0.,12.0,0.,12.0,0.,12.0,0.,12.0
1986-01-26 12:13:42.790 ,0,0,0.,12.0,0.,12.0,0.,12.0,0.,12.0
1986-01-26 12:13:54.790 ,0,0,0.,12.0,0.,12.0,0.,12.0,0.,12.0
1986-01-26 12:14:06.790 ,0,0,0.,12.0,0.,12.0,0.,12.0,0.,12.0
1986-01-26 12:14:18.790 ,0,0,0.,12.0,0.,12.0,0.,12.0,0.,12.0
1986-01-26 12:14:30.790 ,1,0,0.,12.0,0.,12.0,0.,12.0,0.,12.0
1986-01-26 12:14:42.790 ,1,0,0.,12.0,0.,12.0,0.,12.0,0.,12.0
1986-01-26 12:14:54.790 ,1,0,0.,12.0,0.,12.0,0.,12.0,0.,12.0
1986-01-26 12:15:06.790 ,1,0,0.,12.0,0.,12.0,0.,12.0,0.,12.0
1986-01-26 12:15:18.790 ,2,0,0.,12.0,0.,12.0,0.,12.0,0.,12.0
1986-01-26 12:15:30.790 ,2,0,0.,12.0,0.,12.0,0.,12.0,0.,12.0
1986-01-26 12:15:42.790 ,2,0,0.,12.0,0.,12.0,0.,12.0,0.,12.0
1986-01-26 12:15:54.790 ,2,0,0.,12.0,0.,12.0,0.,12.0,0.,12.0
1986-01-26 12:16:06.790 ,3,0,0.,12.0,0.,12.0,0.,12.0,0.,12.0
1986-01-26 12:16:18.790 ,3,0,0.,12.0,0.,12.0,0.,12.0,0.,12.0
1986-01-26 12:16:30.790 ,3,0,0.,12.0,0.,12.0,0.,12.0,0.,12.0
1986-01-26 12:16:42.790 ,3,0,0.,12.0,0.,12.0,0.,12.0,0.,12.0
1986-01-26 12:16:54.790 ,4,0,0.,12.0,0.,12.0,0.,12.0,0.,12.0
1986-01-26 12:17:06.790 ,4,0,0.,12.0,0.,12.0,0.,12.0,0.,12.0
1986-01-26 12:17:18.790 ,4,0,0.,12.0,0.,12.0,0.,12.0,0.,12.0
1986-01-26 12:17:30.790 ,4,0,0.,12.0,0.,12.0,0.,12.0,0.,12.0
1986-01-26 12:17:42.790 ,5,0,0.,12.0,0.,12.0,0.,12.0,0.,12.0
1986-01-26 12:17:54.790 ,5,0,0.,12.0,0.,12.0,0.,12.0,0.,12.0
1986-01-26 12:18:06.790 ,0,0,0.,12.0,0.,12.0,0.,12.0,0.,12.0
1986-01-26 12:18:18.790 ,0,0,0.,12.0,0.,12.0,0.,12.0,0.,12.0
1986-01-26 12:20:03.790 ,0,0,,0,,0,,0,,0
1986-01-26 12:20:15.790 ,0,0,,0,,0,,0,,0
1986-01-26 12:20:06.790 ,7,0,0.,12.0,0.,12.0,0.,12.0,0.,12.0
1986-01-26 12:20:18.790 ,7,0,0.,12.0,0.,12.0,0.,12.0,0.,12.0
1986-01-26 12:20:30.790 ,7,0,0.,12.0,0.,12.0,0.,12.0,0.,12.0
1986-01-26 12:20:42.790 ,7,0,0.,12.0,0.,12.0,0.,12.0,0.,12.0
1986-01-26 12:20:54.790 ,6,0,0.,12.0,0.,12.0,0.,12.0,0.,12.0
1986-01-26 12:21:06.790 ,6,0,0.,12.0,0.,12.0,0.,12.0,0.,12.0
1986-01-26 12:21:18.790 ,6,0,0.,12.0,0.,12.0,0.,12.0,0.,12.0
1986-01-26 12:21:30.790 ,6,0,0.,12.0,0.,12.0,0.,12.0,0.,12.0
1986-01-26 12:21:42.790 ,5,0,0.,12.0,0.,12.0,0.,12.0,0.,12.0
1986-01-26 12:21:54.790 ,5,0,0.,12.0,0.,12.0,0.,12.0,0.,12.0
1986-01-26 12:22:06.790 ,5,0,0.,12.0,0.,12.0,0.,12.0,0.,12.0
1986-01-26 12:22:18.790 ,5,0,0.,12.0,0.,12.0,0.,12.0,0.,12.0
1986-01-26 12:22:30.790 ,4,0,0.,12.0,0.,12.0,0.,12.0,0.,12.0
1986-01-26 12:22:42.790 ,4,0,0.,12.0,0.,12.0,0.,12.0,0.,12.0
1986-01-26 12:22:54.790 ,4,0,0.,12.0,0.,12.0,0.,12.0,0.,12.0
1986-01-26 12:23:06.790 ,4,0,0.,12.0,0.,12.0,0.,12.0,0.,12.0
1986-01-26 12:23:18.790 ,3,0,0.,12.0,0.,12.0,0.,12.0,0.,12.0
1986-01-26 12:23:30.790 ,3,0,0.,12.0,0.,12.0,0.,12.0,0.,12.0
1986-01-26 12:23:42.790 ,3,0,0.,12.0,0.,12.0,0.,12.0,0.,12.0
1986-01-26 12:23:54.790 ,3,0,0.,12.0,0.,12.0,0.,12.0,0.,12.0
1986-01-26 12:24:06.790 ,2,0,0.,12.0,0.,12.0,0.,12.0,0.,12.0
1986-01-26 12:24:18.790 ,2,0,0.,12.0,0.,12.0,0.,12.0,0.,12.0
1986-01-26 12:24:30.790 ,2,0,0.,12.0,0.,12.0,0.,12.0,0.,12.0
1986-01-26 12:24:42.790 ,2,0,0.,12.0,0.,12.0,0.,12.0,0.,12.0
1986-01-26 12:24:54.790 ,1,0,0.,12.0,0.,12.0,0.,12.0,0.,12.0
1986-01-26 12:25:06.790 ,1,0,0.,12.0,0.,12.0,0.,12.0,0.,12.0
1986-01-26 12:25:18.790 ,1,0,0.,12.0,0.,12.0,0.,12.0,0.,12.0
1986-01-26 12:25:30.790 ,1,0,0.,12.0,0.,12.0,0.,12.0,0.,12.0
1986-01-26 12:25:42.790 ,0,0,0.,12.0,0.,12.0,0.,12.0,0.,12.0
1986-01-26 12:25:54.790 ,0,0,0.,12.0,1.,12.0,0.,12.0,0.,12.0
1986-01-26 12:26:06.790 ,0,0,0.,12.0,0.,12.0,0.,12.0,0.,12.0
1986-01-26 12:26:18.790 ,0,0,0.,12.0,0.,12.0,0.,12.0,0.,12.0
1986-01-26 12:26:30.790 ,0,0,0.,12.0,0.,12.0,0.,12.0,0.,12.0
1986-01-26 12:26:42.790 ,0,0,0.,12.0,0.,12.0,0.,12.0,0.,12.0
1986-01-26 12:26:54.790 ,0,0,0.,12.0,0.,12.0,0.,12.0,0.,12.0
1986-01-26 12:27:06.790 ,0,0,0.,12.0,0.,12.0,0.,12.0,0.,12.0
1986-01-26 12:27:18.790 ,1,0,0.,12.0,0.,12.0,0.,12.0,0.,12.0
1986-01-26 12:27:30.790 ,1,0,0.,12.0,0.,12.0,0.,12.0,0.,12.0
1986-01-26 12:27:42.790 ,0,0,0.,12.0,0.,12.0,0.,12.0,0.,12.0
1986-01-26 12:27:54.790 ,0,0,,0,,0,,0,,0
1986-01-26 12:27:53.590 ,0,0,,0,,0,,0,,0
1986-01-26 12:28:05.590 ,0,0,0.,12.0,0.,12.0,0.,12.0,0.,12.0
1986-01-26 12:28:06.790 ,2,0,0.,12.0,0.,12.0,0.,12.0,0.,12.0
1986-01-26 12:28:18.790 ,2,0,0.,12.0,0.,12.0,0.,12.0,0.,12.0
1986-01-26 12:28:30.790 ,2,0,0.,12.0,0.,12.0,0.,12.0,0.,12.0
1986-01-26 12:28:42.790 ,2,0,0.,12.0,0.,12.0,0.,12.0,0.,12.0
1986-01-26 12:28:54.790 ,3,0,0.,12.0,0.,12.0,0.,12.0,0.,12.0
1986-01-26 12:29:06.790 ,3,0,0.,12.0,0.,12.0,0.,12.0,0.,12.0
1986-01-26 12:29:18.790 ,3,0,0.,12.0,0.,12.0,0.,12.0,0.,12.0
1986-01-26 12:29:30.790 ,3,0,0.,12.0,0.,12.0,0.,12.0,0.,12.0
1986-01-26 12:29:42.790 ,4,0,0.,12.0,0.,12.0,0.,12.0,0.,12.0
1986-01-26 12:29:54.790 ,4,0,0.,12.0,0.,12.0,0.,12.0,0.,12.0
1986-01-26 12:30:06.790 ,4,0,0.,12.0,0.,12.0,0.,12.0,0.,12.0
1986-01-26 12:30:18.790 ,4,0,0.,12.0,0.,12.0,0.,12.0,0.,12.0
1986-01-26 12:30:30.790 ,5,0,0.,12.0,0.,12.0,0.,12.0,0.,12.0
1986-01-26 12:30:42.790 ,5,0,0.,12.0,0.,12.0,0.,12.0,0.,12.0
1986-01-26 12:30:54.790 ,5,0,0.,12.0,0.,12.0,0.,12.0,0.,12.0
1986-01-26 12:31:06.790 ,5,0,0.,12.0,0.,12.0,0.,12.0,0.,12.0
1986-01-26 12:31:18.790 ,6,0,0.,12.0,0.,12.0,0.,12.0,0.,12.0
1986-01-26 12:31:30.790 ,6,0,0.,12.0,0.,12.0,0.,12.0,0.,12.0
1986-01-26 12:31:42.790 ,6,0,0.,12.0,0.,12.0,0.,12.0,0.,12.0
1986-01-26 12:31:54.790 ,6,0,0.,12.0,0.,12.0,0.,12.0,0.,12.0
1986-01-26 12:32:06.790 ,7,0,0.,12.0,0.,12.0,0.,12.0,0.,12.0
1986-01-26 12:32:18.790 ,7,0,0.,12.0,0.,12.0,0.,12.0,0.,12.0
1986-01-26 12:32:30.790 ,7,0,0.,12.0,0.,12.0,0.,12.0,0.,12.0
1986-01-26 12:32:42.790 ,7,0,0.,12.0,0.,12.0,0.,12.0,0.,12.0
1986-01-26 12:32:54.790 ,7,0,0.,12.0,0.,12.0,0.,12.0,0.,12.0
1986-01-26 12:33:06.790 ,7,0,0.,12.0,0.,12.0,0.,12.0,0.,12.0
1986-01-26 12:33:18.790 ,7,0,0.,12.0,0.,12.0,0.,12.0,0.,12.0
1986-01-26 12:33:30.790 ,7,0,0.,12.0,0.,12.0,0.,12.0,0.,12.0
1986-01-26 12:33:42.790 ,6,0,0.,12.0,0.,12.0,0.,12.0,0.,12.0
1986-01-26 12:33:54.790 ,6,0,0.,12.0,0.,12.0,0.,12.0,0.,12.0
1986-01-26 12:34:06.790 ,6,0,0.,12.0,0.,12.0,0.,12.0,0.,12.0
1986-01-26 12:34:18.790 ,6,0,0.,12.0,0.,12.0,0.,12.0,0.,12.0
1986-01-26 12:34:30.790 ,5,0,0.,12.0,0.,12.0,0.,12.0,0.,12.0
1986-01-26 12:34:42.790 ,5,0,0.,12.0,0.,12.0,0.,12.0,0.,12.0
1986-01-26 12:34:54.790 ,5,0,0.,12.0,0.,12.0,0.,12.0,0.,12.0
1986-01-26 12:35:06.790 ,5,0,0.,12.0,0.,12.0,0.,12.0,0.,12.0
1986-01-26 12:35:18.790 ,4,0,0.,12.0,0.,12.0,0.,12.0,0.,12.0
1986-01-26 12:35:30.790 ,4,0,0.,12.0,0.,12.0,0.,12.0,0.,12.0
1986-01-26 12:35:42.790 ,0,0,0.,12.0,0.,12.0,0.,12.0,0.,12.0
1986-01-26 12:35:54.790 ,0,0,0.,12.0,0.,12.0,0.,12.0,0.,12.0
1986-01-26 12:42:58.990 ,0,0,0.,12.0,0.,12.0,0.,12.0,0.,12.0
1986-01-26 12:43:10.990 ,0,0,0.,12.0,0.,12.0,0.,12.0,0.,12.0
1986-01-26 12:43:18.790 ,5,0,0.,12.0,0.,12.0,0.,12.0,0.,12.0
1986-01-26 12:43:30.790 ,5,0,0.,12.0,0.,12.0,0.,12.0,0.,12.0
1986-01-26 12:43:42.790 ,5,0,0.,12.0,0.,12.0,0.,12.0,0.,12.0
1986-01-26 12:43:54.790 ,5,0,0.,12.0,0.,12.0,0.,12.0,0.,12.0
1986-01-26 12:44:06.790 ,6,0,0.,12.0,0.,12.0,0.,12.0,0.,12.0
1986-01-26 12:44:18.790 ,6,0,0.,12.0,0.,12.0,0.,12.0,0.,12.0
1986-01-26 12:44:30.790 ,6,0,0.,12.0,0.,12.0,0.,12.0,0.,12.0
1986-01-26 12:44:42.790 ,6,0,0.,12.0,0.,12.0,0.,12.0,0.,12.0
1986-01-26 12:44:54.790 ,7,0,0.,12.0,0.,12.0,0.,12.0,0.,12.0
1986-01-26 12:45:06.790 ,7,0,0.,12.0,0.,12.0,0.,12.0,0.,12.0
1986-01-26 12:45:18.790 ,7,0,0.,12.0,0.,12.0,0.,12.0,0.,12.0
1986-01-26 12:45:30.790 ,7,0,0.,12.0,0.,12.0,0.,12.0,0.,12.0
1986-01-26 12:45:42.790 ,7,0,0.,12.0,0.,12.0,0.,12.0,0.,12.0
1986-01-26 12:45:54.790 ,7,0,0.,12.0,0.,12.0,0.,12.0,0.,12.0
1986-01-26 12:46:06.790 ,7,0,0.,12.0,0.,12.0,0.,12.0,0.,12.0
1986-01-26 12:46:18.790 ,7,0,0.,12.0,0.,12.0,0.,12.0,0.,12.0
1986-01-26 12:46:30.790 ,6,0,0.,12.0,0.,12.0,0.,12.0,0.,12.0
1986-01-26 12:46:42.790 ,6,0,0.,12.0,0.,12.0,0.,12.0,0.,12.0
1986-01-26 12:46:54.790 ,6,0,0.,12.0,0.,12.0,0.,12.0,0.,12.0
1986-01-26 12:47:06.790 ,6,0,0.,12.0,0.,12.0,0.,12.0,0.,12.0
1986-01-26 12:47:18.790 ,5,0,0.,12.0,0.,12.0,0.,12.0,0.,12.0
1986-01-26 12:47:30.790 ,5,0,0.,12.0,0.,12.0,0.,12.0,0.,12.0
1986-01-26 12:47:42.790 ,5,0,0.,12.0,0.,12.0,0.,12.0,0.,12.0
1986-01-26 12:47:54.790 ,5,0,0.,12.0,0.,12.0,0.,12.0,0.,12.0
1986-01-26 12:48:06.790 ,4,0,0.,12.0,0.,12.0,0.,12.0,0.,12.0
1986-01-26 12:48:18.790 ,4,0,0.,12.0,0.,12.0,0.,12.0,0.,12.0
1986-01-26 12:48:30.790 ,4,0,0.,12.0,0.,12.0,0.,12.0,0.,12.0
1986-01-26 12:48:42.790 ,4,0,0.,12.0,0.,12.0,0.,12.0,0.,12.0
1986-01-26 12:48:54.790 ,3,0,0.,12.0,0.,12.0,0.,12.0,0.,12.0
1986-01-26 12:49:06.790 ,3,0,0.,12.0,0.,12.0,0.,12.0,0.,12.0
1986-01-26 12:49:18.790 ,3,0,0.,12.0,0.,12.0,0.,12.0,0.,12.0
1986-01-26 12:49:30.790 ,3,0,0.,12.0,0.,12.0,0.,12.0,0.,12.0
1986-01-26 12:49:42.790 ,2,0,0.,12.0,0.,12.0,0.,12.0,0.,12.0
1986-01-26 12:49:54.790 ,2,0,0.,12.0,0.,12.0,0.,12.0,0.,12.0
1986-01-26 12:50:06.790 ,2,0,0.,12.0,1.,12.0,0.,12.0,0.,12.0
1986-01-26 12:50:18.790 ,2,0,0.,12.0,0.,12.0,0.,12.0,0.,12.0
1986-01-26 12:50:30.790 ,1,0,0.,12.0,0.,12.0,0.,12.0,0.,12.0
1986-01-26 12:50:42.790 ,1,0,0.,12.0,0.,12.0,0.,12.0,0.,12.0
1986-01-26 12:50:54.790 ,1,0,0.,12.0,0.,12.0,0.,12.0,0.,12.0
1986-01-26 12:51:06.790 ,1,0,0.,12.0,0.,12.0,0.,12.0,0.,12.0
1986-01-26 12:51:18.790 ,0,0,0.,12.0,0.,12.0,0.,12.0,0.,12.0
1986-01-26 12:51:30.790 ,0,0,0.,12.0,0.,12.0,0.,12.0,0.,12.0
1986-01-26 12:51:42.790 ,0,0,0.,12.0,0.,12.0,0.,12.0,0.,12.0
1986-01-26 12:51:54.790 ,0,0,,0,,0,,0,,0
1986-01-26 12:59:58.390 ,0,0,,0,,0,,0,,0
1986-01-26 13:00:10.390 ,0,0,0.,12.0,0.,12.0,0.,12.0,0.,12.0
1986-01-26 13:00:06.790 ,5,0,0.,12.0,0.,12.0,0.,12.0,0.,12.0
1986-01-26 13:00:18.790 ,5,0,0.,12.0,0.,12.0,0.,12.0,0.,12.0
1986-01-26 13:00:30.790 ,5,0,0.,12.0,0.,12.0,0.,12.0,0.,12.0
1986-01-26 13:00:42.790 ,5,0,0.,12.0,0.,12.0,0.,12.0,0.,12.0
1986-01-26 13:00:54.790 ,4,0,0.,12.0,0.,12.0,0.,12.0,0.,12.0
1986-01-26 13:01:06.790 ,4,0,0.,12.0,0.,12.0,0.,12.0,0.,12.0
1986-01-26 13:01:18.790 ,4,0,0.,12.0,0.,12.0,0.,12.0,0.,12.0
1986-01-26 13:01:30.790 ,4,0,0.,12.0,0.,12.0,0.,12.0,0.,12.0
1986-01-26 13:01:42.790 ,3,0,0.,12.0,0.,12.0,0.,12.0,0.,12.0
1986-01-26 13:01:54.790 ,3,0,0.,12.0,0.,12.0,0.,12.0,0.,12.0
1986-01-26 13:02:06.790 ,3,0,0.,12.0,0.,12.0,0.,12.0,0.,12.0
1986-01-26 13:02:18.790 ,3,0,0.,12.0,0.,12.0,0.,12.0,0.,12.0
1986-01-26 13:02:30.790 ,2,0,0.,12.0,0.,12.0,0.,12.0,0.,12.0
1986-01-26 13:02:42.790 ,2,0,0.,12.0,0.,12.0,0.,12.0,0.,12.0
1986-01-26 13:02:54.790 ,2,0,0.,12.0,0.,12.0,0.,12.0,0.,12.0
1986-01-26 13:03:06.790 ,2,0,0.,12.0,0.,12.0,0.,12.0,0.,12.0
1986-01-26 13:03:18.790 ,1,0,0.,12.0,0.,12.0,0.,12.0,0.,12.0
1986-01-26 13:03:30.790 ,1,0,0.,12.0,0.,12.0,0.,12.0,0.,12.0
1986-01-26 13:03:42.790 ,1,0,0.,12.0,0.,12.0,0.,12.0,0.,12.0
1986-01-26 13:03:54.790 ,1,0,0.,12.0,0.,12.0,0.,12.0,0.,12.0
1986-01-26 13:04:06.790 ,0,0,0.,12.0,0.,12.0,0.,12.0,0.,12.0
1986-01-26 13:04:18.790 ,0,0,0.,12.0,0.,12.0,0.,12.0,0.,12.0
1986-01-26 13:04:30.790 ,0,0,0.,12.0,0.,12.0,0.,12.0,0.,12.0
1986-01-26 13:04:42.790 ,0,0,0.,12.0,0.,12.0,0.,12.0,0.,12.0
1986-01-26 13:04:54.790 ,0,0,0.,12.0,0.,12.0,0.,12.0,0.,12.0
1986-01-26 13:05:06.790 ,0,0,0.,12.0,0.,12.0,0.,12.0,0.,12.0
1986-01-26 13:05:18.790 ,0,0,0.,12.0,0.,12.0,0.,12.0,0.,12.0
1986-01-26 13:05:30.790 ,0,0,0.,12.0,1.,12.0,0.,12.0,0.,12.0
1986-01-26 13:05:42.790 ,1,0,0.,12.0,0.,12.0,0.,12.0,0.,12.0
1986-01-26 13:05:54.790 ,1,0,0.,12.0,0.,12.0,0.,12.0,0.,12.0
1986-01-26 13:06:06.790 ,1,0,0.,12.0,0.,12.0,0.,12.0,0.,12.0
1986-01-26 13:06:18.790 ,1,0,0.,12.0,0.,12.0,0.,12.0,0.,12.0
1986-01-26 13:06:30.790 ,2,0,0.,12.0,0.,12.0,0.,12.0,0.,12.0
1986-01-26 13:06:42.790 ,2,0,0.,12.0,0.,12.0,0.,12.0,0.,12.0
1986-01-26 13:06:54.790 ,2,0,0.,12.0,0.,12.0,0.,12.0,0.,12.0
1986-01-26 13:07:06.790 ,2,0,0.,12.0,0.,12.0,0.,12.0,0.,12.0
1986-01-26 13:07:18.790 ,3,0,0.,12.0,0.,12.0,0.,12.0,0.,12.0
1986-01-26 13:07:30.790 ,3,0,0.,12.0,0.,12.0,0.,12.0,0.,12.0
1986-01-26 13:07:42.790 ,3,0,0.,12.0,0.,12.0,0.,12.0,0.,12.0
1986-01-26 13:07:54.790 ,3,0,0.,12.0,0.,12.0,0.,12.0,0.,12.0
1986-01-26 13:08:06.790 ,4,0,0.,12.0,0.,12.0,0.,12.0,0.,12.0
1986-01-26 13:08:18.790 ,4,0,0.,12.0,0.,12.0,0.,12.0,0.,12.0
1986-01-26 13:08:30.790 ,4,0,0.,12.0,0.,12.0,0.,12.0,0.,12.0
1986-01-26 13:08:42.790 ,4,0,0.,12.0,0.,12.0,0.,12.0,0.,12.0
1986-01-26 13:08:54.790 ,5,0,0.,12.0,0.,12.0,0.,12.0,0.,12.0
1986-01-26 13:09:06.790 ,5,0,0.,12.0,0.,12.0,0.,12.0,0.,12.0
1986-01-26 13:09:18.790 ,5,0,0.,12.0,0.,12.0,0.,12.0,0.,12.0
1986-01-26 13:09:30.790 ,5,0,0.,12.0,0.,12.0,0.,12.0,0.,12.0
1986-01-26 13:09:42.790 ,6,0,0.,12.0,0.,12.0,0.,12.0,0.,12.0
1986-01-26 13:09:54.790 ,6,0,0.,12.0,0.,12.0,0.,12.0,0.,12.0
1986-01-26 13:10:06.790 ,6,0,0.,12.0,0.,12.0,0.,12.0,0.,12.0
1986-01-26 13:10:18.790 ,6,0,0.,12.0,0.,12.0,0.,12.0,0.,12.0
1986-01-26 13:10:30.790 ,7,0,0.,12.0,0.,12.0,0.,12.0,0.,12.0
1986-01-26 13:10:42.790 ,7,0,0.,12.0,0.,12.0,0.,12.0,0.,12.0
1986-01-26 13:10:54.790 ,7,0,0.,12.0,0.,12.0,0.,12.0,0.,12.0
1986-01-26 13:11:06.790 ,7,0,0.,12.0,0.,12.0,0.,12.0,0.,12.0
1986-01-26 13:11:18.790 ,7,0,0.,12.0,0.,12.0,0.,12.0,0.,12.0
1986-01-26 13:11:30.790 ,7,0,0.,12.0,0.,12.0,0.,12.0,0.,12.0
1986-01-26 13:11:42.790 ,7,0,0.,12.0,0.,12.0,0.,12.0,0.,12.0
1986-01-26 13:11:54.790 ,7,0,0.,12.0,0.,12.0,0.,12.0,0.,12.0
1986-01-26 13:12:06.790 ,6,0,0.,12.0,0.,12.0,0.,12.0,0.,12.0
1986-01-26 13:12:18.790 ,6,0,0.,12.0,0.,12.0,0.,12.0,0.,12.0
1986-01-26 13:12:30.790 ,6,0,0.,12.0,0.,12.0,0.,12.0,0.,12.0
1986-01-26 13:12:42.790 ,6,0,0.,12.0,0.,12.0,0.,12.0,0.,12.0
1986-01-26 13:12:54.790 ,5,0,0.,12.0,0.,12.0,0.,12.0,0.,12.0
1986-01-26 13:13:06.790 ,5,0,0.,12.0,0.,12.0,0.,12.0,0.,12.0
1986-01-26 13:13:18.790 ,0,0,,0,,0,,0,,0
1986-01-26 13:13:30.790 ,0,0,,0,,0,,0,,0
1986-01-26 13:13:27.190 ,0,0,,0,,0,,0,,0
1986-01-26 13:13:39.190 ,0,0,0.,12.0,0.,12.0,0.,12.0,0.,12.0
1986-01-26 13:13:42.790 ,4,0,0.,12.0,0.,12.0,0.,12.0,0.,12.0
1986-01-26 13:13:54.790 ,4,0,0.,12.0,0.,12.0,0.,12.0,0.,12.0
1986-01-26 13:14:06.790 ,4,0,0.,12.0,0.,12.0,0.,12.0,0.,12.0
1986-01-26 13:14:18.790 ,4,0,0.,12.0,0.,12.0,0.,12.0,0.,12.0
1986-01-26 13:14:30.790 ,3,0,0.,12.0,0.,12.0,0.,12.0,0.,12.0
1986-01-26 13:14:42.790 ,3,0,0.,12.0,0.,12.0,0.,12.0,0.,12.0
1986-01-26 13:14:54.790 ,3,0,0.,12.0,0.,12.0,0.,12.0,0.,12.0
1986-01-26 13:15:06.790 ,3,0,0.,12.0,0.,12.0,0.,12.0,0.,12.0
1986-01-26 13:15:18.790 ,2,0,0.,12.0,0.,12.0,0.,12.0,0.,12.0
1986-01-26 13:15:30.790 ,2,0,0.,12.0,0.,12.0,0.,12.0,0.,12.0
1986-01-26 13:15:42.790 ,2,0,0.,12.0,0.,12.0,0.,12.0,0.,12.0
1986-01-26 13:15:54.790 ,2,0,0.,12.0,0.,12.0,0.,12.0,0.,12.0
1986-01-26 13:16:06.790 ,1,0,0.,12.0,0.,12.0,0.,12.0,0.,12.0
1986-01-26 13:16:18.790 ,1,0,0.,12.0,0.,12.0,0.,12.0,0.,12.0
1986-01-26 13:16:30.790 ,1,0,0.,12.0,0.,12.0,0.,12.0,0.,12.0
1986-01-26 13:16:42.790 ,1,0,0.,12.0,0.,12.0,0.,12.0,0.,12.0
1986-01-26 13:16:54.790 ,0,0,0.,12.0,0.,12.0,0.,12.0,0.,12.0
1986-01-26 13:17:06.790 ,0,0,0.,12.0,0.,12.0,0.,12.0,0.,12.0
1986-01-26 13:17:18.790 ,0,0,0.,12.0,0.,12.0,0.,12.0,0.,12.0
1986-01-26 13:17:30.790 ,0,0,0.,12.0,0.,12.0,0.,12.0,0.,12.0
1986-01-26 13:17:42.790 ,0,0,0.,12.0,0.,12.0,0.,12.0,0.,12.0
1986-01-26 13:17:54.790 ,0,0,0.,12.0,0.,12.0,0.,12.0,0.,12.0
1986-01-26 13:18:06.790 ,0,0,0.,12.0,0.,12.0,0.,12.0,0.,12.0
1986-01-26 13:18:18.790 ,0,0,0.,12.0,0.,12.0,0.,12.0,0.,12.0
1986-01-26 13:18:30.790 ,1,0,0.,12.0,0.,12.0,0.,12.0,0.,12.0
1986-01-26 13:18:42.790 ,1,0,0.,12.0,0.,12.0,0.,12.0,0.,12.0
1986-01-26 13:18:54.790 ,1,0,0.,12.0,0.,12.0,0.,12.0,0.,12.0
1986-01-26 13:19:06.790 ,1,0,0.,12.0,0.,12.0,0.,12.0,0.,12.0
1986-01-26 13:19:18.790 ,2,0,0.,12.0,0.,12.0,0.,12.0,0.,12.0
1986-01-26 13:19:30.790 ,2,0,0.,12.0,0.,12.0,0.,12.0,0.,12.0
1986-01-26 13:19:42.790 ,2,0,0.,12.0,0.,12.0,0.,12.0,0.,12.0
1986-01-26 13:19:54.790 ,2,0,0.,12.0,0.,12.0,0.,12.0,0.,12.0
1986-01-26 13:20:06.790 ,3,0,0.,12.0,0.,12.0,0.,12.0,0.,12.0
1986-01-26 13:20:18.790 ,3,0,0.,12.0,0.,12.0,0.,12.0,0.,12.0
1986-01-26 13:20:30.790 ,3,0,0.,12.0,0.,12.0,0.,12.0,0.,12.0
1986-01-26 13:20:42.790 ,3,0,0.,12.0,0.,12.0,0.,12.0,0.,12.0
1986-01-26 13:20:54.790 ,4,0,0.,12.0,0.,12.0,0.,12.0,0.,12.0
1986-01-26 13:21:06.790 ,4,0,0.,12.0,0.,12.0,0.,12.0,0.,12.0
1986-01-26 13:21:18.790 ,4,0,0.,12.0,0.,12.0,0.,12.0,0.,12.0
1986-01-26 13:21:30.790 ,4,0,0.,12.0,0.,12.0,0.,12.0,0.,12.0
1986-01-26 13:21:42.790 ,5,0,0.,12.0,0.,12.0,0.,12.0,0.,12.0
1986-01-26 13:21:54.790 ,5,0,0.,12.0,0.,12.0,0.,12.0,0.,12.0
1986-01-26 13:22:06.790 ,5,0,0.,12.0,0.,12.0,0.,12.0,0.,12.0
1986-01-26 13:22:18.790 ,5,0,0.,12.0,0.,12.0,0.,12.0,0.,12.0
1986-01-26 13:22:30.790 ,6,0,0.,12.0,0.,12.0,0.,12.0,0.,12.0
1986-01-26 13:22:42.790 ,6,0,0.,12.0,0.,12.0,0.,12.0,0.,12.0
1986-01-26 13:22:54.790 ,6,0,0.,12.0,0.,12.0,0.,12.0,0.,12.0
1986-01-26 13:23:06.790 ,6,0,0.,12.0,0.,12.0,0.,12.0,0.,12.0
1986-01-26 13:23:18.790 ,7,0,0.,12.0,0.,12.0,0.,12.0,0.,12.0
1986-01-26 13:23:30.790 ,7,0,0.,12.0,0.,12.0,0.,12.0,0.,12.0
1986-01-26 13:23:42.790 ,7,0,0.,12.0,0.,12.0,0.,12.0,0.,12.0
1986-01-26 13:23:54.790 ,7,0,0.,12.0,0.,12.0,0.,12.0,0.,12.0
1986-01-26 13:24:06.790 ,7,0,0.,12.0,0.,12.0,0.,12.0,0.,12.0
1986-01-26 13:24:18.790 ,7,0,0.,12.0,0.,12.0,0.,12.0,0.,12.0
1986-01-26 13:24:30.790 ,7,0,0.,12.0,0.,12.0,0.,12.0,0.,12.0
1986-01-26 13:24:42.790 ,7,0,0.,12.0,0.,12.0,0.,12.0,0.,12.0
1986-01-26 13:24:54.790 ,6,0,0.,12.0,0.,12.0,0.,12.0,0.,12.0
1986-01-26 13:25:06.790 ,6,0,0.,12.0,0.,12.0,0.,12.0,0.,12.0
1986-01-26 13:25:18.790 ,6,0,0.,12.0,0.,12.0,0.,12.0,0.,12.0
1986-01-26 13:25:30.790 ,6,0,0.,12.0,0.,12.0,0.,12.0,0.,12.0
1986-01-26 13:25:42.790 ,5,0,0.,12.0,0.,12.0,0.,12.0,0.,12.0
1986-01-26 13:25:54.790 ,5,0,0.,12.0,1.,12.0,0.,12.0,0.,12.0
1986-01-26 13:26:06.790 ,5,0,0.,12.0,0.,12.0,0.,12.0,0.,12.0
1986-01-26 13:26:18.790 ,5,0,0.,12.0,0.,12.0,0.,12.0,0.,12.0
1986-01-26 13:26:30.790 ,4,0,0.,12.0,0.,12.0,0.,12.0,0.,12.0
1986-01-26 13:26:42.790 ,4,0,0.,12.0,0.,12.0,0.,12.0,0.,12.0
1986-01-26 13:26:54.790 ,4,0,0.,12.0,0.,12.0,0.,12.0,0.,12.0
1986-01-26 13:27:06.790 ,4,0,0.,12.0,0.,12.0,0.,12.0,0.,12.0
1986-01-26 13:27:18.790 ,3,0,0.,12.0,0.,12.0,0.,12.0,0.,12.0
1986-01-26 13:27:30.790 ,3,0,0.,12.0,0.,12.0,0.,12.0,0.,12.0
1986-01-26 13:27:42.790 ,3,0,0.,12.0,0.,12.0,0.,12.0,0.,12.0
1986-01-26 13:27:54.790 ,3,0,0.,12.0,0.,12.0,0.,12.0,0.,12.0
1986-01-26 13:28:06.790 ,2,0,0.,12.0,0.,12.0,0.,12.0,0.,12.0
1986-01-26 13:28:18.790 ,2,0,0.,12.0,0.,12.0,0.,12.0,0.,12.0
1986-01-26 13:28:30.790 ,2,0,0.,12.0,0.,12.0,0.,12.0,0.,12.0
1986-01-26 13:28:42.790 ,2,0,0.,12.0,0.,12.0,0.,12.0,0.,12.0
1986-01-26 13:28:54.790 ,1,0,0.,12.0,0.,12.0,0.,12.0,0.,12.0
1986-01-26 13:29:06.790 ,1,0,0.,12.0,0.,12.0,0.,12.0,0.,12.0
1986-01-26 13:29:18.790 ,1,0,0.,12.0,0.,12.0,0.,12.0,0.,12.0
1986-01-26 13:29:30.790 ,1,0,0.,12.0,0.,12.0,0.,12.0,0.,12.0
1986-01-26 13:29:42.790 ,0,0,0.,12.0,0.,12.0,0.,12.0,0.,12.0
1986-01-26 13:29:54.790 ,0,0,0.,12.0,0.,12.0,0.,12.0,0.,12.0
1986-01-26 13:30:06.790 ,0,0,0.,12.0,0.,12.0,0.,12.0,0.,12.0
1986-01-26 13:30:18.790 ,0,0,0.,12.0,0.,12.0,0.,12.0,0.,12.0
1986-01-26 13:30:30.790 ,0,0,0.,12.0,0.,12.0,0.,12.0,0.,12.0
1986-01-26 13:30:42.790 ,0,0,0.,12.0,0.,12.0,0.,12.0,0.,12.0
1986-01-26 13:30:54.790 ,0,0,0.,12.0,0.,12.0,0.,12.0,0.,12.0
1986-01-26 13:31:06.790 ,0,0,0.,12.0,0.,12.0,0.,12.0,0.,12.0
1986-01-26 13:31:18.790 ,1,0,0.,12.0,0.,12.0,0.,12.0,0.,12.0
1986-01-26 13:31:30.790 ,1,0,0.,12.0,0.,12.0,0.,12.0,0.,12.0
1986-01-26 13:31:42.790 ,1,0,0.,12.0,0.,12.0,0.,12.0,0.,12.0
1986-01-26 13:31:54.790 ,1,0,0.,12.0,0.,12.0,0.,12.0,0.,12.0
1986-01-26 13:32:06.790 ,2,0,0.,12.0,0.,12.0,0.,12.0,0.,12.0
1986-01-26 13:32:18.790 ,2,0,0.,12.0,0.,12.0,0.,12.0,0.,12.0
1986-01-26 13:32:30.790 ,2,0,0.,12.0,0.,12.0,0.,12.0,0.,12.0
1986-01-26 13:32:42.790 ,2,0,0.,12.0,0.,12.0,0.,12.0,0.,12.0